CW8847 Weather Reports


time (UTC)temp
C
wind
direction
speed
KPH
gust
KPH
rain 1hr
cm
rain 24hr
cm
rain mn
cm
humidity
%
barometer
mb
20260509074634 16 300 6.4 11.3 0.00 0.00 0.00 23 1015.0
20260509073634 16 13 1.6 9.7 0.00 0.00 0.00 23 1014.7
20260509072615 17 237 3.2 8.0 0.00 0.00 0.00 22 1014.5
20260509071616 17 242 4.8 11.3 0.00 0.00 0.00 22 1014.3
20260509070615 16 307 4.8 14.5 0.00 0.00 0.00 23 1014.3
20260509065647 16 312 9.7 19.3 0.00 0.00 0.00 24 1014.3
20260509064627 16 316 17.7 22.5 0.00 0.00 0.00 24 1014.2
20260509063626 16 343 11.3 20.9 0.00 0.00 0.00 25 1014.2
20260509062626 16 341 16.1 25.7 0.00 0.00 0.00 26 1014.2
20260509061630 15 338 12.9 19.3 0.00 0.00 0.00 29 1014.3
20260509060622 15 340 6.4 14.5 0.00 0.00 0.00 30 1014.3
20260509055614 15 350 8.0 12.9 0.00 0.00 0.00 31 1014.1
20260509054634 15 350 11.3 14.5 0.00 0.00 0.00 33 1014.0
20260509053635 15 350 11.3 16.1 0.00 0.00 0.00 32 1014.0
20260509052614 15 349 16.1 17.7 0.00 0.00 0.00 30 1013.9
20260509051614 16 342 14.5 17.7 0.00 0.00 0.00 30 1013.8
20260509050635 16 321 12.9 14.5 0.00 0.00 0.00 29 1013.8
20260509045626 16 355 14.5 17.7 0.00 0.00 0.00 27 1013.7
20260509044631 16 355 11.3 16.1 0.00 0.00 0.00 29 1013.7
20260509043631 16 347 12.9 14.5 0.00 0.00 0.00 29 1013.6
20260509042630 17 333 9.7 14.5 0.00 0.00 0.00 28 1013.5
20260509041629 17 328 11.3 19.3 0.00 0.00 0.00 27 1013.4
20260509040646 17 344 17.7 24.1 0.00 0.00 0.00 27 1013.3
20260509035632 18 346 20.9 27.4 0.00 0.00 0.00 26 1013.3
20260509034629 18 315 17.7 20.9 0.00 0.00 0.00 24 1013.1
20260509033626 19 348 17.7 30.6 0.00 0.00 0.00 23 1012.9
20260509032631 19 340 20.9 33.8 0.00 0.00 0.00 23 1013.0
20260509031629 18 341 16.1 25.7 0.00 0.00 0.00 24 1012.9
20260509030626 18 340 14.5 17.7 0.00 0.00 0.00 25 1012.8
20260509025655 18 349 11.3 17.7 0.00 0.00 0.00 24 1012.9
20260509024632 19 344 9.7 16.1 0.00 0.00 0.00 26 1012.7
20260509023629 20 332 11.3 16.1 0.00 0.00 0.00 27 1012.6
20260509022627 21 348 8.0 14.5 0.00 0.00 0.00 30 1012.5
20260509021625 22 236 3.2 17.7 0.00 0.00 0.00 24 1012.3
20260509020622 21 297 4.8 24.1 0.00 0.00 0.00 22 1012.2
20260509015616 21 228 3.2 14.5 0.00 0.00 0.00 28 1012.1
20260509014614 21 167 4.8 11.3 0.00 0.00 0.00 30 1012.1
20260509013633 21 159 3.2 9.7 0.00 0.00 0.00 33 1012.0
20260509012631 22 160 1.6 9.7 0.00 0.00 0.00 30 1011.8
20260509011630 22 160 4.8 12.9 0.00 0.00 0.00 29 1011.9
20260509010629 22 158 4.8 12.9 0.00 0.00 0.00 31 1011.9
20260509005625 22 158 3.2 9.7 0.00 0.00 0.00 29 1012.0
20260509004623 22 158 3.2 8.0 0.00 0.00 0.00 28 1012.0
20260509003644 22 158 1.6 9.7 0.00 0.00 0.00 30 1012.1
20260509002621 22 158 6.4 11.3 0.00 0.00 0.00 30 1012.0
20260509001628 22 158 4.8 14.5 0.00 0.00 0.00 29 1012.0
20260509000628 22 161 12.9 17.7 0.00 0.00 0.00 27 1012.1
20260508235619 23 188 9.7 16.1 0.00 0.00 0.00 26 1012.1
20260508234619 22 153 11.3 19.3 0.00 0.00 0.00 27 1012.1
20260508233622 23 151 16.1 22.5 0.00 0.00 0.00 25 1012.1
20260508232623 23 163 17.7 25.7 0.00 0.00 0.00 25 1012.1
20260508231623 23 147 11.3 24.1 0.00 0.00 0.00 25 1012.1
20260508230622 23 154 14.5 22.5 0.00 0.00 0.00 26 1012.2
20260508225633 23 167 12.9 22.5 0.00 0.00 0.00 26 1012.4
20260508224634 23 159 14.5 25.7 0.00 0.00 0.00 25 1012.4
20260508223654 23 154 17.7 29.0 0.00 0.00 0.00 25 1012.5
20260508222617 23 142 22.5 30.6 0.00 0.00 0.00 26 1012.7
20260508221618 24 159 14.5 27.4 0.00 0.00 0.00 23 1012.7
20260508220618 25 256 12.9 24.1 0.00 0.00 0.00 21 1012.7
20260508215625 24 230 16.1 22.5 0.00 0.00 0.00 20 1012.9
20260508214624 24 237 14.5 24.1 0.00 0.00 0.00 20 1013.1
20260508213623 23 225 20.9 27.4 0.00 0.00 0.00 20 1013.1
20260508212624 23 253 14.5 24.1 0.00 0.00 0.00 22 1013.3
20260508211625 23 179 3.2 16.1 0.00 0.00 0.00 20 1013.3
20260508210628 23 204 9.7 22.5 0.00 0.00 0.00 20 1013.5
20260508205622 23 216 8.0 19.3 0.00 0.00 0.00 21 1013.6
20260508204620 23 232 14.5 24.1 0.00 0.00 0.00 22 1013.8
20260508203620 23 238 14.5 25.7 0.00 0.00 0.00 21 1013.7
20260508202621 23 269 12.9 22.5 0.00 0.00 0.00 21 1013.8
20260508201620 23 249 6.4 25.7 0.00 0.00 0.00 20 1013.9
20260508200625 22 265 4.8 24.1 0.00 0.00 0.00 22 1014.0
20260508195617 23 240 9.7 25.7 0.00 0.00 0.00 22 1014.1
20260508194616 22 242 17.7 32.2 0.00 0.00 0.00 22 1014.1
20260508193614 22 235 14.5 24.1 0.00 0.00 0.00 22 1014.3
20260508192635 23 253 12.9 29.0 0.00 0.00 0.00 21 1014.4
20260508191615 23 255 20.9 29.0 0.00 0.00 0.00 21 1014.5
20260508190615 23 263 16.1 27.4 0.00 0.00 0.00 21 1014.6
20260508185629 23 331 12.9 32.2 0.00 0.00 0.00 21 1014.7
20260508184633 23 265 12.9 25.7 0.00 0.00 0.00 23 1014.8
20260508183632 22 270 16.1 22.5 0.00 0.00 0.00 22 1014.9
20260508182631 22 295 11.3 20.9 0.00 0.00 0.00 23 1015.0
20260508181630 23 244 8.0 24.1 0.00 0.00 0.00 23 1015.1
20260508180620 22 290 11.3 22.5 0.00 0.00 0.00 23 1015.1
20260508175632 22 269 11.3 27.4 0.00 0.00 0.00 24 1015.3
20260508174632 21 288 17.7 25.7 0.00 0.00 0.00 25 1015.3
20260508173615 21 230 9.7 19.3 0.00 0.00 0.00 26 1015.4
20260508172616 20 238 12.9 27.4 0.00 0.00 0.00 25 1015.4
20260508171614 20 238 11.3 17.7 0.00 0.00 0.00 27 1015.4
20260508170655 20 254 6.4 12.9 0.00 0.00 0.00 28 1015.5
20260508165646 19 246 6.4 12.9 0.00 0.00 0.00 26 1015.5
20260508164627 19 200 6.4 12.9 0.00 0.00 0.00 28 1015.5
20260508163626 18 202 6.4 12.9 0.00 0.00 0.00 30 1015.5
20260508162628 18 154 9.7 12.9 0.00 0.00 0.00 29 1015.4
20260508161631 18 155 6.4 12.9 0.00 0.00 0.00 33 1015.5
20260508160632 17 160 6.4 9.7 0.00 0.00 0.00 35 1015.5
20260508155623 17 160 6.4 9.7 0.00 0.00 0.00 34 1015.6
20260508154644 16 160 6.4 11.3 0.00 0.00 0.00 37 1015.6
20260508153622 15 162 4.8 14.5 0.00 0.00 0.00 37 1015.6
20260508152620 15 201 4.8 14.5 0.00 0.00 0.00 47 1015.6
20260508151622 16 202 11.3 14.5 0.00 0.00 0.00 46 1015.6
20260508150644 16 343 4.8 6.4 0.00 0.00 0.00 41 1015.4
20260508145618 15 343 0.0 6.4 0.00 0.00 0.00 39 1015.4
20260508144618 15 343 6.4 8.0 0.00 0.00 0.00 47 1015.3
20260508143639 13 342 3.2 8.0 0.00 0.00 0.00 42 1015.3
20260508142617 12 342 4.8 6.4 0.00 0.00 0.00 53 1015.3
20260508141618 11 342 0.0 6.4 0.00 0.00 0.00 56 1015.1
20260508140617 12 342 4.8 8.0 0.00 0.00 0.00 52 1015.1
20260508135631 13 342 0.0 0.0 0.00 0.00 0.00 43 1015.1
20260508134613 12 342 0.0 3.2 0.00 0.00 0.00 45 1015.0
20260508133635 12 342 0.0 0.0 0.00 0.00 0.00 49 1014.8
20260508132615 11 342 0.0 1.6 0.00 0.00 0.00 53 1014.6
20260508131614 12 342 0.0 4.8 0.00 0.00 0.00 50 1014.5
20260508130634 12 342 1.6 12.9 0.00 0.00 0.00 47 1014.4
20260508125625 11 342 11.3 14.5 0.00 0.00 0.00 46 1014.3
20260508124624 11 340 12.9 14.5 0.00 0.00 0.00 47 1014.1
20260508123628 11 339 3.2 6.4 0.00 0.00 0.00 46 1014.0
20260508122627 11 339 3.2 9.7 0.00 0.00 0.00 45 1013.9
20260508121626 12 339 9.7 14.5 0.00 0.00 0.00 43 1013.9
20260508120629 12 338 14.5 16.1 0.00 0.00 0.00 43 1013.8
20260508115621 11 338 16.1 17.7 0.00 0.00 0.00 44 1013.7
20260508114621 11 337 12.9 14.5 0.00 0.00 0.00 45 1013.6
20260508113621 11 339 9.7 12.9 0.00 0.00 0.00 45 1013.5
20260508112623 11 340 3.2 6.4 0.00 0.00 0.00 45 1013.5
20260508111622 12 340 0.0 3.2 0.00 0.00 0.00 45 1013.4
20260508110621 11 340 3.2 14.5 0.00 0.00 0.00 46 1013.4
20260508105636 11 340 11.3 12.9 0.00 0.00 0.00 46 1013.3
20260508104616 11 340 8.0 9.7 0.00 0.00 0.00 47 1013.3
20260508103615 11 340 11.3 14.5 0.00 0.00 0.00 48 1013.3
20260508102614 11 340 11.3 14.5 0.00 0.00 0.00 48 1013.2
20260508101619 11 340 9.7 12.9 0.00 0.00 0.00 48 1013.2
20260508100617 11 340 14.5 14.5 0.00 0.00 0.00 48 1013.1
20260508095629 11 339 14.5 14.5 0.00 0.00 0.00 47 1013.1
20260508094629 11 337 9.7 12.9 0.00 0.00 0.00 45 1013.1
20260508093628 11 337 3.2 8.0 0.00 0.00 0.00 45 1013.1
20260508092628 11 337 3.2 12.9 0.00 0.00 0.00 47 1013.1
20260508091626 11 337 9.7 14.5 0.00 0.00 0.00 47 1013.1
20260508090625 11 336 11.3 12.9 0.00 0.00 0.00 48 1013.1
20260508085642 11 336 8.0 14.5 0.00 0.00 0.00 49 1013.1
20260508084620 11 336 11.3 14.5 0.00 0.00 0.00 47 1013.0
20260508083620 12 329 9.7 14.5 0.00 0.00 0.00 44 1013.1
20260508082619 13 324 8.0 9.7 0.00 0.00 0.00 42 1013.0
20260508081619 12 324 3.2 8.0 0.00 0.00 0.00 42 1013.1
20260508080618 13 324 3.2 8.0 0.00 0.00 0.00 42 1013.1
20260508075632 12 324 3.2 9.7 0.00 0.00 0.00 43 1013.1